Hourly Data Report for September 16, 2003

SHERBROOKE A
QUEBEC

45°26'00.000" N
71°41'00.000" W
241.40 m
7028124
71610
YSC

Download Data

Hourly Data (September 2003)
Hourly Data Report for September 16, 2003
TIME
LST
Temp Definition
°C
Dew Point Definition
°C
Rel Hum Definition
%
Precip. Amount Definition
mm

Wind Dir Definition
10's deg

Wind Spd Definition
km/h
Visibility Definition
km
Stn Press Definition
kPa
Hmdx Definition


Wind Chill Definition


Weather Definition


00:00 18.4 16.2 87   13 6 15.0 98.81      
01:00 18.6 16.1 85   14 6 15.0 98.80      
02:00 18.9 15.9 83   15 9 15.0 98.79      
03:00 18.8 15.9 83   16 6 15.0 98.78      
04:00 18.9 15.9 83   13 13 15.0 98.76      
05:00 18.5 16.0 85   10 7 15.0 98.76      
06:00 18.3 16.4 89   15 9 15.0 98.80      
07:00 15.9 14.3 90   27 17 11.3 98.89     Rain
08:00 15.7 14.7 94   27 6 16.1 98.93     Cloudy
09:00 15.3 13.4 88   30 7 24.1 98.94     Rain
10:00 16.1 14.8 92   25 6 12.9 98.96     Rain
11:00 14.8 13.7 93   27 7 4.8 99.00     Rain, Fog
12:00 14.9 13.8 93     0 16.1 98.97     Rain
13:00 15.6 13.8 89   18 6 19.3 98.95     Rain
14:00 16.5 14.2 86   19 6 24.1 98.91     Mostly Cloudy
15:00 17.2 14.3 83   16 7 24.1 98.90     Mostly Cloudy
16:00 18.0 14.4 79   20 4 24.1 98.89     Mostly Cloudy
17:00 18.4 14.2 77     0 15.0 98.89      
18:00 14.3 12.8 91     0 15.0 98.94      
19:00 11.3 9.8 90   24 6 15.0 99.01      
20:00 9.8 8.4 91   22 6 15.0 99.04      
21:00 8.9 8.2 95     0 15.0 99.08      
22:00 7.7 7.1 96     0 15.0 99.13      
23:00 7.5 6.6 94     0 15.0 99.17      

Notes on Data Quality.

Legend

  • E = Estimated
  • M = Missing
  • NA = Not Available*
  • [empty] = Indicates an unobserved value
Date modified: